Date String (YYYY-MM-DD hh:mm:ss) UTC,Instrument flags,absolute air pressure of the measurement (hPa),sample flow rate (lpm),inlet stack bypass flow (lpm),air temperature of the measurement (°C),ambient temperature measured by the external sensor (°C),aerosol sample conditioner tube jacket temperature (°C),OPC LED temperature (°C),internal box temperature (°C),relative humidity of the measurement (%),span deviation,mass concentration of particles derived from Lorenz-Mie calculation of OPC scattering (μg/m³),mass concentration of particles derived from Lorenz-Mie calculation of OPC scattering (μg/m³),mass concentration of particles derived from Lorenz-Mie calculation of OPC scattering (μg/m³)
DateTimeUTC,F1_M11,P_M11,Q1_M11,Q2_M11,T1_M11,T2_M11,T3_M11,T4_M11,T5_M11,U1_M11,ZSPAN_M11,X2_M11,X0_M11,X1_M11
2024-05-14 19:00:00,SystemResetWarning,0824.2,4.99,000.00,024.1,023.4,000.0,032.2,025.9,018.8,0000.0,0003.13,0007.42,0002.23
2024-05-14 19:01:00,SystemResetWarning,0824.3,4.99,000.00,024.2,023.6,000.0,032.2,026.1,018.7,0000.0,0003.11,0007.31,0002.19
2024-05-14 19:02:00,SystemResetWarning,0824.3,4.99,000.00,024.2,023.8,000.0,032.2,026.2,016.8,0000.0,0003.12,0006.39,0002.16
2024-05-14 19:03:00,SystemResetWarning,0824.4,5.00,000.00,024.3,023.9,000.0,032.2,026.3,016.1,0000.0,0003.13,0005.70,0002.19
2024-05-14 19:04:00,SystemResetWarning,0824.2,4.99,000.00,024.2,022.7,000.0,032.3,025.6,016.9,0000.0,0003.18,0006.00,0002.23
2024-05-14 19:05:00,SystemResetWarning,0824.2,5.01,000.00,023.9,021.1,000.0,032.4,024.8,017.6,0000.0,0003.22,0007.09,0002.28
2024-05-14 19:06:00,SystemResetWarning,0824.1,5.02,000.00,023.8,021.4,000.0,032.4,024.9,017.9,0000.0,0003.26,0007.53,0002.33
2024-05-14 19:07:00,SystemResetWarning,0824.2,4.98,000.00,023.8,021.9,000.0,032.3,025.1,018.0,0000.0,0003.31,0007.66,0002.40
2024-05-14 19:08:00,SystemResetWarning,0824.3,5.00,000.00,023.8,022.3,000.0,032.2,025.3,018.6,0000.0,0003.34,0007.77,0002.46
2024-05-14 19:09:00,SystemResetWarning,0824.3,5.01,000.00,023.9,022.6,000.0,032.2,025.5,018.6,0000.0,0003.37,0007.98,0002.51
2024-05-14 19:10:00,SystemResetWarning,0824.3,5.01,000.00,024.0,023.0,000.0,032.1,025.7,019.5,0000.0,0003.41,0007.98,0002.56
2024-05-14 19:11:00,SystemResetWarning,0824.3,4.99,000.00,024.0,023.3,000.0,032.1,025.9,019.0,0000.0,0003.42,0008.00,0002.61
2024-05-14 19:12:00,SystemResetWarning,0824.3,4.99,000.00,024.1,023.6,000.0,032.2,026.1,018.6,0000.0,0003.43,0007.97,0002.65
2024-05-14 19:13:00,SystemResetWarning,0824.3,5.00,000.00,024.2,023.8,000.0,032.2,026.2,018.6,0000.0,0003.46,0007.97,0002.70
2024-05-14 19:14:00,SystemResetWarning,0824.2,5.00,000.00,024.2,022.9,000.0,032.3,025.6,019.1,0000.0,0003.48,0008.01,0002.71
2024-05-14 19:15:00,SystemResetWarning,0824.1,5.00,000.00,023.9,021.4,000.0,032.3,024.8,019.6,0000.0,0003.50,0007.92,0002.72
2024-05-14 19:16:00,SystemResetWarning,0824.3,5.02,000.00,023.7,021.7,000.0,032.3,024.9,020.5,0000.0,0003.48,0007.23,0002.72
2024-05-14 19:17:00,SystemResetWarning,0824.3,5.00,000.00,023.8,022.1,000.0,032.2,025.2,019.7,0000.0,0003.50,0006.88,0002.73
2024-05-14 19:18:00,SystemResetWarning,0824.2,4.99,000.00,023.8,022.5,000.0,032.2,025.4,019.8,0000.0,0003.49,0006.81,0002.75
2024-05-14 19:19:00,SystemResetWarning,0824.3,5.03,000.00,023.9,023.0,000.0,032.1,025.7,019.6,0000.0,0003.45,0006.09,0002.74
2024-05-14 19:20:00,SystemResetWarning,0824.3,5.02,000.00,024.0,023.2,000.0,032.1,025.8,019.7,0000.0,0003.46,0006.17,0002.75
2024-05-14 19:21:00,SystemResetWarning,0824.3,4.99,000.00,024.1,023.2,000.0,032.2,025.7,019.2,0000.0,0003.48,0006.32,0002.77
2024-05-14 19:22:00,SystemResetWarning,0824.1,4.99,000.00,023.8,021.6,000.0,032.2,024.9,019.5,0000.0,0003.48,0006.29,0002.78
2024-05-14 19:23:00,SystemResetWarning,0824.2,5.03,000.00,023.6,021.1,000.0,032.2,024.6,019.5,0000.0,0003.49,0006.30,0002.80
2024-05-14 19:24:00,SystemResetWarning,0824.2,4.99,000.00,023.6,021.7,000.0,032.2,024.9,019.5,0000.0,0003.49,0006.66,0002.82
2024-05-14 19:25:00,SystemResetWarning,0824.1,4.99,000.00,023.6,022.1,000.0,032.1,025.1,019.9,0000.0,0003.46,0007.67,0002.82
2024-05-14 19:26:00,SystemResetWarning,0824.1,5.02,000.00,023.7,022.5,000.0,032.0,025.3,019.5,0000.0,0003.44,0007.78,0002.82
2024-05-14 19:27:00,SystemResetWarning,0824.1,5.00,000.00,023.8,022.9,000.0,032.0,025.5,019.0,0000.0,0003.43,0008.00,0002.84
2024-05-14 19:28:00,SystemResetWarning,0824.0,4.99,000.00,023.9,023.2,000.0,032.0,025.7,019.2,0000.0,0003.40,0008.03,0002.83
2024-05-14 19:29:00,SystemResetWarning,0824.0,5.01,000.00,024.0,023.5,000.0,032.0,025.9,018.3,0000.0,0003.40,0007.97,0002.83
2024-05-14 19:30:00,SystemResetWarning,0823.9,4.98,000.00,023.9,022.7,000.0,032.1,025.4,018.4,0000.0,0003.47,0008.09,0002.86
2024-05-14 19:31:00,SystemResetWarning,0823.9,5.02,000.00,023.6,021.2,000.0,032.1,024.6,018.9,0000.0,0003.47,0008.01,0002.88
2024-05-14 19:32:00,SystemResetWarning,0823.9,5.01,000.00,023.5,021.5,000.0,032.1,024.7,019.2,0000.0,0003.45,0007.92,0002.88
2024-05-14 19:33:00,SystemResetWarning,0823.9,4.99,000.00,023.5,021.9,000.0,032.0,024.9,019.4,0000.0,0003.44,0007.86,0002.90
2024-05-14 19:34:00,SystemResetWarning,0824.0,4.99,000.00,023.6,022.3,000.0,032.0,025.2,019.5,0000.0,0003.42,0007.82,0002.89
2024-05-14 19:35:00,SystemResetWarning,0824.0,5.02,000.00,023.7,022.7,000.0,031.9,025.5,019.9,0000.0,0003.40,0007.57,0002.88
2024-05-14 19:36:00,SystemResetWarning,0824.1,5.00,000.00,023.8,023.1,000.0,031.9,025.6,019.7,0000.0,0003.44,0006.42,0002.90
2024-05-14 19:37:00,SystemResetWarning,0824.1,4.98,000.00,023.9,023.4,000.0,031.9,025.8,019.8,0000.0,0003.45,0006.44,0002.89
2024-05-14 19:38:00,SystemResetWarning,0824.1,4.99,000.00,024.0,023.4,000.0,032.0,025.7,018.0,0000.0,0003.46,0006.16,0002.85
2024-05-14 19:39:00,SystemResetWarning,0824.0,5.00,000.00,023.8,021.8,000.0,032.1,024.8,017.9,0000.0,0003.45,0005.99,0002.81
2024-05-14 19:40:00,SystemResetWarning,0824.0,5.00,000.00,023.5,021.0,000.0,032.1,024.4,018.8,0000.0,0003.44,0005.95,0002.77
2024-05-14 19:41:00,SystemResetWarning,0824.0,5.01,000.00,023.4,021.6,000.0,032.0,024.7,018.8,0000.0,0003.41,0006.30,0002.74
2024-05-14 19:42:00,SystemResetWarning,0824.0,5.00,000.00,023.5,022.0,000.0,031.9,025.0,018.6,0000.0,0003.42,0006.48,0002.73
2024-05-14 19:43:00,SystemResetWarning,0824.0,4.99,000.00,023.6,022.4,000.0,031.9,025.2,018.6,0000.0,0003.43,0006.75,0002.72
2024-05-14 19:44:00,SystemResetWarning,0824.0,5.00,000.00,023.7,022.8,000.0,031.9,025.4,018.1,0000.0,0003.45,0006.92,0002.71
2024-05-14 19:45:00,SystemResetWarning,0824.0,5.01,000.00,023.7,023.1,000.0,031.9,025.6,017.6,0000.0,0003.47,0007.19,0002.71
2024-05-14 19:46:00,SystemResetWarning,0824.0,4.99,000.00,023.8,023.4,000.0,031.9,025.7,017.4,0000.0,0003.50,0007.34,0002.70
2024-05-14 19:47:00,SystemResetWarning,0824.0,4.99,000.00,023.8,022.6,000.0,032.0,025.3,017.6,0000.0,0003.49,0007.30,0002.69
2024-05-14 19:48:00,SystemResetWarning,0824.0,5.00,000.00,023.5,020.9,000.0,032.0,024.4,017.8,0000.0,0003.49,0007.27,0002.69
2024-05-14 19:49:00,SystemResetWarning,0824.0,5.01,000.00,023.3,021.0,000.0,032.0,024.4,018.1,0000.0,0003.53,0007.46,0002.73
2024-05-14 19:50:00,SystemResetWarning,0824.0,4.99,000.00,023.3,021.5,000.0,031.9,024.7,018.2,0000.0,0003.52,0007.54,0002.77
2024-05-14 19:51:00,SystemResetWarning,0824.0,4.99,000.00,023.4,021.9,000.0,031.8,025.0,017.6,0000.0,0003.57,0008.06,0002.81
2024-05-14 19:52:00,SystemResetWarning,0824.0,5.01,000.00,023.5,022.4,000.0,031.8,025.2,016.9,0000.0,0003.60,0008.28,0002.82
2024-05-14 19:53:00,SystemResetWarning,0824.0,5.01,000.00,023.6,022.8,000.0,031.7,025.4,016.8,0000.0,0003.62,0008.88,0002.83
2024-05-14 19:54:00,SystemResetWarning,0824.0,5.01,000.00,023.7,023.1,000.0,031.8,025.5,016.3,0000.0,0003.64,0008.78,0002.83
2024-05-14 19:55:00,SystemResetWarning,0824.0,5.01,000.00,023.8,023.4,000.0,031.8,025.7,016.4,0000.0,0003.63,0008.71,0002.84
2024-05-14 19:56:00,SystemResetWarning,0824.0,4.99,000.00,023.8,022.7,000.0,031.9,025.3,018.0,0000.0,0003.63,0008.71,0002.83
2024-05-14 19:57:00,SystemResetWarning,0823.9,5.01,000.00,023.5,020.9,000.0,031.9,024.3,019.3,0000.0,0003.65,0009.13,0002.83
2024-05-14 19:58:00,SystemResetWarning,0823.9,5.01,000.00,023.2,020.9,000.0,031.9,024.3,019.8,0000.0,0003.67,0009.82,0002.84
2024-05-14 19:59:00,SystemResetWarning,0824.0,4.99,000.00,023.3,021.5,000.0,031.8,024.6,018.6,0000.0,0003.69,0009.81,0002.85
